weather.gov     
National Weather Service

Regional Weather Roundup
NWS Homepage
This page is being discontinued on March 12, 2014.
The same data is available at this site. Please update your bookmarks.
Thank you, and we apologize for the inconvenience.
Please send an email to SR-SRH.Webmaster@noaa.gov with any concerns.


Current Version
Previous Version:    01  02  03  04  05  06  07  08  09  10  11  12  13  14  15  16  17  18  19  20  21  22  23  24  25  26  27  
[Printable]
608
ASUS42 KCAE 260310
RWRCAE
REGIONAL WEATHER ROUNDUP
NATIONAL WEATHER SERVICE COLUMBIA SC
1000 PM EST TUE NOV 25 2014

NOTE: "FAIR" INDICATES FEW OR NO CLOUDS BELOW 12,000 FEET WITH NO
SIGNIFICANT WEATHER AND/OR OBSTRUCTIONS TO VISIBILITY.

NOT ALL STATIONS ARE QUALITY CONTROLLED BY THE NATIONAL
WEATHER SERVICE. USE DATA WITH CAUTION...ESPECIALLY
DEWPOINT OBSERVATIONS.

SCZ001>056-GAZ040-063>065-077-260400-
...UPSTATE SOUTH CAROLINA...

CITY           SKY/WX    TMP DP  RH WIND       PRES   REMARKS
ANDERSON       LGT RAIN  50  47  89 CALM      30.05S
LIBERTY        CLOUDY    49  44  84 MISG      30.03F
SPARTANBURG    LGT RAIN  54  43  66 N3        30.06R
CLEMSON        CLOUDY    54  43  66 CALM      30.05F
GREENVILLE     LGT RAIN  53  40  61 E9        30.05F
GREENWOOD      LGT RAIN  50  48  93 CALM      30.05F
GREER          LGT RAIN  52  41  66 CALM      30.04S
ROCK HILL      LGT RAIN  50  48  93 CALM      30.06F
CHESTER        LGT RAIN  54  50  87 NE5       30.06S
LAURENS        LGT RAIN N/A N/A N/A CALM      30.05R


...CENTRAL SOUTH CAROLINA...

CITY           SKY/WX    TMP DP  RH WIND       PRES   REMARKS
COLUMBIA APT   LGT RAIN  57  55  93 CALM      30.01F FOG
COLUMBIA OWENS LGT RAIN  58  56  93 CALM      30.02F FOG
DARLINGTON     CLOUDY    55  54  94 NE7       30.04F
FLORENCE       LGT RAIN  61  60  97 E8        30.02F
MCENTIRE ANGB  LGT RAIN  58  57  99 NE1       30.02S FOG
ORANGEBURG     RAIN      59  57  93 NE5       30.00S FOG
SUMTER SHAW    CLOUDY    59  55  88 NE6       29.99F
NEWBERRY       LGT RAIN  52 N/A N/A N6        30.07S
AIKEN          LGT RAIN  52  52 100 N3        30.05S
BARNWELL         N/A     55  55 100 N6        30.00F
CAMDEN         LGT RAIN  54  54 100 CALM      30.03S
LANCASTER      LGT RAIN  50  50 100 NE5       30.05S
WINNSBORO      LGT RAIN  52  52 100 N5        30.02F


...EASTERN AND COASTAL SOUTH CAROLINA...

CITY           SKY/WX    TMP DP  RH WIND       PRES   REMARKS
MYRTLE BEACH   CLOUDY    63  61  94 E12       29.99F
N MYRTLE BCH   LGT RAIN  63  61  93 E9        30.00F
CONWAY         RAIN      63 N/A N/A NE6       30.00F
MARION         DRIZZLE   61  61 100 CALM      30.02F
FLORENCE       LGT RAIN  61  60  97 E8        30.02F
DARLINGTON     CLOUDY    55  54  94 NE7       30.04F
CHARLESTON APT LGT RAIN  63  61  93 NE8       29.95F
WALTERBORO     HVY RAIN  59 N/A N/A NE6       29.97F
BEAUFORT       LGT RAIN  60  58  92 NW9       29.97S FOG


...EASTERN GEORGIA...

CITY           SKY/WX    TMP DP  RH WIND       PRES   REMARKS
AUGUSTA BUSH F LGT RAIN  52  49  89 N7        30.02F
AUGUSTA DANIEL CLOUDY    52  49  89 N9        30.02S
THOMSON        CLOUDY    50  50 100 NW6       30.10R
WASHINGTON     RAIN      52  52 100 SW3       30.07R
CLAXTON        RAIN      54  54 100 N3        29.98F
SYLVANIA       DRIZZLE   56  55  97 N3        30.00F
STATESBORO     DRIZZLE   55  55 100 N3        29.99F
SAVANNAH       LGT RAIN  61  57  88 N8        29.95F FOG


...SOUTHERN NORTH CAROLINA...

CITY           SKY/WX    TMP DP  RH WIND       PRES   REMARKS
CHARLOTTE      LGT RAIN  51  45  79 E5        30.06F
MONROE         LGT RAIN  51  46  83 NE7       30.05S
WADESBORO      RAIN      52  50  92 NE5       30.07R
ROCKINGHAM     LGT RAIN  51  50  96 NE7       30.05F
RUTHERFORDTON  CLOUDY    48  40  74 CALM      30.08R
ASHEVILLE      CLOUDY    48  26  42 CALM      30.06S

$$




U.S. Dept. of Commerce
NOAA National Weather Service
1325 East West Highway
Silver Spring, MD 20910
E-mail: w-nws.webmaster@noaa.gov
Page last modified: May 16, 2007
NATIONAL WEATHER SERVICE: for Safety, for Work, for Fun - FOR LIFE